TimeEDT,TemperatureF,Dew PointF,Humidity,Sea Level PressureIn,VisibilityMPH,Wind Direction,Wind SpeedMPH,Gust SpeedMPH,PrecipitationIn,Events,Conditions,WindDirDegrees,DateUTC
12:53 AM,66.9,52.0,59,29.94,10.0,North,13.8,19.6,N/A,,Mostly Cloudy,350,2013-06-14 04:53:00
1:53 AM,66.0,53.1,63,29.94,10.0,NNW,10.4,-,N/A,,Mostly Cloudy,340,2013-06-14 05:53:00
2:53 AM,64.0,54.0,70,29.94,10.0,NNW,8.1,-,N/A,,Scattered Clouds,340,2013-06-14 06:53:00
3:53 AM,63.0,54.0,72,29.94,10.0,NW,5.8,-,N/A,,Scattered Clouds,310,2013-06-14 07:53:00
4:53 AM,63.0,54.0,72,29.95,10.0,NNW,8.1,-,N/A,,Mostly Cloudy,330,2013-06-14 08:53:00
5:53 AM,62.1,53.1,72,29.96,10.0,NNW,9.2,-,N/A,,Mostly Cloudy,340,2013-06-14 09:53:00
6:53 AM,62.1,53.1,72,29.99,10.0,NNW,8.1,-,N/A,,Scattered Clouds,340,2013-06-14 10:53:00
7:53 AM,63.0,53.1,70,30.01,10.0,North,9.2,-,N/A,,Partly Cloudy,350,2013-06-14 11:53:00
8:53 AM,64.9,53.1,65,30.03,10.0,NNW,10.4,-,N/A,,Partly Cloudy,340,2013-06-14 12:53:00
9:53 AM,66.9,53.1,61,30.06,10.0,NW,8.1,-,N/A,,Scattered Clouds,320,2013-06-14 13:53:00
10:53 AM,69.1,54.0,58,30.07,10.0,North,12.7,17.3,N/A,,Scattered Clouds,350,2013-06-14 14:53:00
11:53 AM,71.1,53.1,53,30.06,10.0,North,11.5,19.6,N/A,,Scattered Clouds,350,2013-06-14 15:53:00
12:53 PM,73.0,54.0,51,30.06,10.0,NNW,9.2,-,N/A,,Partly Cloudy,340,2013-06-14 16:53:00
1:53 PM,73.9,53.1,48,30.06,10.0,North,9.2,17.3,N/A,,Partly Cloudy,350,2013-06-14 17:53:00
2:53 PM,75.9,53.1,45,30.05,10.0,NNE,10.4,-,N/A,,Partly Cloudy,20,2013-06-14 18:53:00
3:53 PM,75.9,52.0,43,30.04,10.0,NNW,6.9,-,N/A,,Partly Cloudy,340,2013-06-14 19:53:00
4:53 PM,77.0,50.0,39,30.03,10.0,Calm,Calm,-,N/A,,Scattered Clouds,0,2013-06-14 20:53:00
5:53 PM,77.0,50.0,39,30.04,10.0,Calm,Calm,-,N/A,,Scattered Clouds,0,2013-06-14 21:53:00
6:53 PM,77.0,48.9,37,30.03,10.0,NNE,4.6,-,N/A,,Scattered Clouds,20,2013-06-14 22:53:00
7:53 PM,73.0,57.0,57,30.04,10.0,SSE,6.9,-,N/A,,Scattered Clouds,160,2013-06-14 23:53:00
8:53 PM,71.1,55.0,57,30.04,10.0,SE,6.9,-,N/A,,Scattered Clouds,130,2013-06-15 00:53:00
9:53 PM,68.0,55.9,65,30.06,10.0,Calm,Calm,-,N/A,,Partly Cloudy,0,2013-06-15 01:53:00
10:53 PM,66.0,54.0,65,30.09,10.0,ESE,3.5,-,N/A,,Clear,110,2013-06-15 02:53:00
11:53 PM,64.0,54.0,70,30.08,10.0,East,3.5,-,N/A,,Clear,90,2013-06-15 03:53:00